Weather History for KS25 - October, 2012

Change the Weather History Date:

Wednesday, October 17, 2012

  Actual Average (KISN) Record (KISN)
Temperature  
Mean Temperature 44 °F 43 °F  
Max Temperature 48 °F 56 °F 83 °F (1914)
Min Temperature 39 °F 30 °F 11 °F (1919)
Degree Days  
Heating Degree Days 22 22  
Month to date heating degree days 319  
Since 1 July heating degree days 665  
Cooling Degree Days 0 0  
Month to date cooling degree days 0  
Year to date cooling degree days 455  
Moisture  
Dew Point 33 °F    
Average Humidity 66    
Maximum Humidity 100    
Minimum Humidity 43    
Precipitation  
Precipitation 0.13 in 0.03 in 0.82 in (1938)
Month to date precipitation 0.53  
Year to date precipitation 12.71  
Snow  
Snow 0.00 in 0.10 in 5.20 in (1938)
Snow Depth -    
Sea Level Pressure  
Sea Level Pressure 29.46 in    
Wind  
Wind Speed 26 mph (WNW)    
Max Wind Speed 40 mph    
Max Gust Speed 53 mph    
Visibility 10 miles    
Events Rain    
T = Trace of Precipitation, MM = Missing Value Source: NWS Daily Summary

Daily Weather History Graph

Daily Weather History Graph

Search for Another Location

Airport or City:

Trip Planner

Search our weather history database for the weather conditions in past years. The results will help you decide how hot, cold, wet, or windy it might be!

Date:

Astronomy

Oct. 17, 2012 Rise Set
Actual Time 8:15 AM CDT 6:59 PM CDT
Civil Twilight 7:44 AM CDT 7:31 PM CDT
Nautical Twilight 7:08 AM CDT 8:06 PM CDT
Astronomical Twilight 6:32 AM CDT 8:42 PM CDT
Moon 11:06 AM CDT (10/17) 8:23 PM CDT (10/17)
Length of Visible Light 11h 46m
Length of Day
10h 44m
Waxing Crescent, 7% of the Moon is Illuminated
Oct 17
Waxing Crescent
Oct 21
First Quarter
Oct 29
Full
Nov 6
Last Quarter
Nov 13
New

Hourly Weather History & Observations

Time (CDT) Temp. Windchill Dew Point Humidity Pressure Visibility Wind Dir Wind Speed Gust Speed Precip Events Conditions
12:15 AM 48.2 °F - 39.2 °F 71% 29.28 in 10.0 mi West 21.9 mph 36.8 mph N/A   Clear
12:35 AM 46.4 °F 38.1 °F 39.2 °F 76% 29.28 in 10.0 mi West 24.2 mph 34.5 mph N/A   Clear
12:55 AM 46.4 °F 37.4 °F 39.2 °F 76% 29.27 in 10.0 mi West 28.8 mph 34.5 mph N/A   Clear
1:15 AM 46.4 °F 38.1 °F 39.2 °F 76% 29.27 in 10.0 mi West 24.2 mph 32.2 mph N/A   Scattered Clouds
1:35 AM 46.4 °F 38.1 °F 39.2 °F 76% 29.27 in 10.0 mi West 24.2 mph 35.7 mph N/A   Overcast
1:55 AM 46.4 °F 39.5 °F 39.2 °F 76% 29.27 in 10.0 mi West 17.3 mph 33.4 mph N/A   Overcast
2:15 AM 44.6 °F 36.6 °F 41.0 °F 87% 29.26 in 10.0 mi West 19.6 mph 29.9 mph N/A   Overcast
2:35 AM 44.6 °F 36.1 °F 41.0 °F 87% 29.26 in 10.0 mi West 21.9 mph 28.8 mph N/A   Overcast
2:55 AM 44.6 °F 36.6 °F 41.0 °F 87% 29.26 in 10.0 mi West 19.6 mph 26.5 mph N/A   Overcast
3:15 AM 46.4 °F 39.5 °F 41.0 °F 81% 29.25 in 10.0 mi West 17.3 mph 23.0 mph N/A   Overcast
3:35 AM 46.4 °F 39.2 °F 42.8 °F 87% 29.25 in 10.0 mi WNW 18.4 mph 26.5 mph N/A Rain Light Rain
3:55 AM 46.4 °F 38.5 °F 41.0 °F 81% 29.27 in 10.0 mi NW 21.9 mph 43.7 mph N/A   Overcast
4:15 AM 44.6 °F 35.3 °F 39.2 °F 81% 29.29 in 10.0 mi NW 26.5 mph 42.6 mph N/A   Overcast
4:35 AM 42.8 °F 32.7 °F 39.2 °F 87% 29.31 in 7.0 mi WNW 27.6 mph 41.4 mph N/A Rain Light Rain
4:55 AM 42.8 °F 32.3 °F 39.2 °F 87% 29.32 in 9.0 mi NW 29.9 mph 38.0 mph 0.02 in Rain Light Rain
5:15 AM 41.0 °F 31.9 °F 41.0 °F 100% 29.33 in 2.5 mi WNW 19.6 mph 27.6 mph 0.02 in Rain Light Rain
5:35 AM 41.0 °F 31.1 °F 39.2 °F 93% 29.34 in 3.0 mi WNW 23.0 mph 32.2 mph 0.06 in Rain Rain
5:55 AM 41.0 °F 30.7 °F 39.2 °F 93% 29.36 in 8.0 mi NW 25.3 mph 35.7 mph 0.07 in   Overcast
6:15 AM 41.0 °F 31.4 °F 39.2 °F 93% 29.37 in 5.0 mi WNW 21.9 mph 27.6 mph N/A   Overcast
6:35 AM 41.0 °F 31.6 °F 39.2 °F 93% 29.38 in 10.0 mi WNW 20.7 mph 31.1 mph 0.02 in Rain Light Rain
6:55 AM 41.0 °F 30.5 °F 37.4 °F 87% 29.38 in 10.0 mi WNW 26.5 mph 36.8 mph 0.02 in Rain Light Rain
7:15 AM 41.0 °F 30.7 °F 35.6 °F 81% 29.38 in 10.0 mi WNW 25.3 mph 35.7 mph N/A Rain Light Rain
7:35 AM 42.8 °F 31.9 °F 32.0 °F 66% 29.39 in 10.0 mi WNW 32.2 mph 48.3 mph N/A Rain Light Rain
7:55 AM 41.0 °F 29.8 °F 33.8 °F 76% 29.42 in 9.0 mi NW 29.9 mph 50.6 mph N/A Rain Light Rain
8:15 AM 41.0 °F 29.3 °F 33.8 °F 76% 29.43 in 10.0 mi WNW 33.4 mph 46.0 mph N/A Rain Light Rain
8:35 AM 39.2 °F 27.4 °F 33.8 °F 81% 29.44 in 8.0 mi WNW 29.9 mph 43.7 mph 0.01 in Rain Light Rain
8:55 AM 41.0 °F 29.7 °F 32.0 °F 70% 29.45 in 9.0 mi WNW 31.1 mph 41.4 mph 0.01 in Rain Light Rain
9:15 AM 41.0 °F 30.5 °F 32.0 °F 70% 29.46 in 8.0 mi WNW 26.5 mph 42.6 mph N/A Rain Light Rain
9:35 AM 41.0 °F 30.7 °F 32.0 °F 70% 29.46 in 10.0 mi WNW 25.3 mph 33.4 mph N/A Rain Light Rain
9:55 AM 41.0 °F 29.7 °F 32.0 °F 70% 29.47 in 10.0 mi WNW 31.1 mph 48.3 mph 0.01 in Rain Light Rain
10:15 AM 41.0 °F 32.5 °F 32.0 °F 70% 29.48 in 10.0 mi WNW 17.3 mph 28.8 mph N/A Rain Light Rain
10:35 AM 41.0 °F 32.2 °F 32.0 °F 70% 29.48 in 10.0 mi WNW 18.4 mph 25.3 mph N/A   Overcast
10:55 AM 41.0 °F 31.1 °F 32.0 °F 70% 29.48 in 10.0 mi WNW 23.0 mph 31.1 mph N/A   Overcast
11:15 AM 41.0 °F 31.1 °F 30.2 °F 65% 29.49 in 10.0 mi WNW 23.0 mph 38.0 mph N/A   Scattered Clouds
11:35 AM 42.8 °F 31.9 °F 28.4 °F 57% 29.48 in 10.0 mi WNW 32.2 mph 41.4 mph N/A   Clear
11:55 AM 42.8 °F 33.3 °F 28.4 °F 57% 29.49 in 10.0 mi WNW 24.2 mph 35.7 mph N/A   Clear
12:15 PM 44.6 °F 34.7 °F 28.4 °F 53% 29.48 in 10.0 mi WNW 29.9 mph 43.7 mph N/A   Clear
12:35 PM 44.6 °F 34.9 °F 28.4 °F 53% 29.49 in 10.0 mi WNW 28.8 mph 47.2 mph N/A   Clear
1:15 PM 46.4 °F 37.2 °F 28.4 °F 50% 29.48 in 10.0 mi WNW 29.9 mph 44.9 mph N/A   Clear
1:35 PM 46.4 °F 36.9 °F 26.6 °F 46% 29.48 in 10.0 mi NW 32.2 mph 49.5 mph N/A   Clear
1:55 PM 46.4 °F 36.5 °F 26.6 °F 46% 29.48 in 10.0 mi WNW 34.5 mph 50.6 mph N/A   Clear
2:15 PM 48.2 °F - 26.6 °F 43% 29.47 in 10.0 mi NW 38.0 mph 50.6 mph N/A   Clear
2:35 PM 48.2 °F - 28.4 °F 46% 29.47 in 10.0 mi WNW 35.7 mph 48.3 mph N/A   Clear
2:55 PM 48.2 °F - 26.6 °F 43% 29.48 in 10.0 mi NW 28.8 mph 46.0 mph N/A   Partly Cloudy
3:15 PM 48.2 °F - 26.6 °F 43% 29.49 in 10.0 mi NW 27.6 mph 44.9 mph N/A   Mostly Cloudy
3:35 PM 48.2 °F - 26.6 °F 43% 29.49 in 10.0 mi WNW 28.8 mph 42.6 mph N/A   Overcast
3:55 PM 48.2 °F - 26.6 °F 43% 29.50 in 10.0 mi WNW 33.4 mph 49.5 mph N/A   Mostly Cloudy
4:15 PM 48.2 °F - 26.6 °F 43% 29.50 in 10.0 mi WNW 40.3 mph 49.5 mph N/A   Mostly Cloudy
4:35 PM 48.2 °F - 28.4 °F 46% 29.51 in 10.0 mi NW 31.1 mph 47.2 mph N/A   Overcast
4:55 PM 46.4 °F 36.4 °F 28.4 °F 50% 29.51 in 10.0 mi NW 35.7 mph 51.8 mph N/A   Overcast
5:15 PM 46.4 °F 36.9 °F 28.4 °F 50% 29.52 in 10.0 mi NW 32.2 mph 48.3 mph N/A   Overcast
5:35 PM 46.4 °F 37.2 °F 28.4 °F 50% 29.53 in 10.0 mi NW 29.9 mph 47.2 mph N/A   Overcast
5:55 PM 46.4 °F 37.2 °F 28.4 °F 50% 29.55 in 10.0 mi NW 29.9 mph 48.3 mph N/A   Mostly Cloudy
6:15 PM 46.4 °F 37.2 °F 28.4 °F 50% 29.55 in 10.0 mi NW 29.9 mph 48.3 mph N/A   Overcast
6:35 PM 46.4 °F 37.0 °F 28.4 °F 50% 29.56 in 10.0 mi WNW 31.1 mph 52.9 mph N/A   Overcast
6:55 PM 44.6 °F 34.9 °F 28.4 °F 53% 29.58 in 10.0 mi NW 28.8 mph 49.5 mph N/A   Overcast
7:15 PM 44.6 °F 34.6 °F 28.4 °F 53% 29.58 in 10.0 mi WNW 31.1 mph 44.9 mph N/A Rain Light Rain
7:35 PM 44.6 °F 33.8 °F 26.6 °F 49% 29.59 in 10.0 mi NW 36.8 mph 48.3 mph N/A   Overcast
7:55 PM 44.6 °F 35.5 °F 28.4 °F 53% 29.60 in 10.0 mi NW 25.3 mph 42.6 mph N/A   Overcast
8:15 PM 42.8 °F 32.5 °F 28.4 °F 57% 29.61 in 10.0 mi NW 28.8 mph 44.9 mph N/A Rain Light Rain
8:35 PM 42.8 °F 32.5 °F 30.2 °F 61% 29.61 in 10.0 mi NW 28.8 mph 48.3 mph N/A Rain Light Rain
8:55 PM 42.8 °F 32.3 °F 28.4 °F 57% 29.61 in 10.0 mi NW 29.9 mph 38.0 mph N/A Rain Light Rain
9:15 PM 42.8 °F 31.9 °F 28.4 °F 57% 29.62 in 10.0 mi NW 32.2 mph 50.6 mph N/A Rain Light Rain
9:35 PM 42.8 °F 32.9 °F 28.4 °F 57% 29.62 in 10.0 mi NW 26.5 mph 39.1 mph N/A   Overcast
9:55 PM 42.8 °F 32.3 °F 28.4 °F 57% 29.62 in 10.0 mi NW 29.9 mph 49.5 mph N/A   Overcast
10:15 PM 42.8 °F 32.7 °F 28.4 °F 57% 29.63 in 10.0 mi NW 27.6 mph 46.0 mph N/A   Overcast
10:35 PM 42.8 °F 32.1 °F 30.2 °F 61% 29.63 in 10.0 mi NW 31.1 mph 42.6 mph N/A   Overcast
10:55 PM 42.8 °F 31.6 °F 30.2 °F 61% 29.64 in 10.0 mi NW 34.5 mph 44.9 mph N/A   Mostly Cloudy
11:15 PM 41.0 °F 30.7 °F 32.0 °F 70% 29.64 in 10.0 mi NW 25.3 mph 42.6 mph N/A   Overcast
11:35 PM 41.0 °F 29.1 °F 32.0 °F 70% 29.64 in 10.0 mi NW 34.5 mph 42.6 mph N/A   Overcast
11:55 PM 41.0 °F 29.3 °F 32.0 °F 70% 29.64 in 10.0 mi NW 33.4 mph 43.7 mph N/A   Overcast